Regional Weather Roundup
Issued by NWS

Home | Current Version | Previous Version | Graphics & Text | Print | Product List | Glossary On
Versions: 1 2 3 4 5 6 7 8 9 10 11 12 13 14 15 16 17 18 19 20 21 22 23 24 25 26 27 28 29 30 31 32 33 34 35 36 37 38 39 40 41 42 43 44 45 46 47 48 49 50
870
ASUS43 KIND 261909
RWRIN

WEATHER ROUNDUP FOR INDIANA
NATIONAL WEATHER SERVICE INDIANAPOLIS IN
300 PM EDT WED APR 26 2017

NOTE: "FAIR" INDICATES FEW OR NO CLOUDS BELOW 12,000 FEET WITH NO
SIGNIFICANT WEATHER AND/OR OBSTRUCTIONS TO VISIBILITY.

* - STATION DOES NOT REPORT WEATHER SUCH AS PRECIPITATION OR FOG.

+ - STATION NOT QUALITY CONTROLLED BY THE NATIONAL WEATHER SERVICE.
    USE DATA WITH CAUTION...ESPECIALLY DEWPOINT AND RELATIVE
    HUMIDITY OBSERVATIONS.

INZ001>003-010>013-019-020-262000-
NORTHWEST INDIANA

CITY           SKY/WX    TMP DP  RH WIND       PRES   REMARKS
GARY /AIRPORT/ MOSUNNY   79  52  38 SW24G36   29.50R
KNOX *+        MOSUNNY   82  18   9 SW28G35   29.48R
LA PORTE +     PTSUNNY   79  55  43 SW21G28   29.49S
MICHIGAN CITY+ MOSUNNY   81  55  41 SW20G29   29.48R
MONTICELLO +   MOSUNNY   82  53  36 SW22G28   29.50S
RENSSELAER +   PTSUNNY   81  48  32 SW21G30   29.51R
VALPARAISO     MOSUNNY   81  55  40 SW28G36   29.50R

$$

LMZ046-743>745-262000-
SOUTHERN LAKE MICHIGAN

STATION/POSITION TIME  TEMP    WIND        PRES    WAVE
                       AIR SEA DIR/SP/G            HT
                 (UTC) (F)     (DEG/KT/KT) (MB)    (FT)
BURNS HARBOR     1816   76     220/ 21/ 25  998.3R
MICHIGAN CITY    1840   72     220/ 23/ 27   N/A
5NW MICH CITY    1900   60 49                N/A     2

$$

INZ004-005-014>016-021>024-262000-
NORTH CENTRAL INDIANA

CITY           SKY/WX    TMP DP  RH WIND       PRES   REMARKS
GOSHEN         PTSUNNY   80  56  43 S25G33    29.50R
LOGANSPORT +   PTSUNNY   81  52  36 SW18G32   29.52S
PERU/GRISSOM   MOSUNNY   82  59  45 SW23G33   29.52R
ROCHESTER +    SUNNY     82  54  36 SW14G24   29.52R
SOUTH BEND     MOSUNNY   82  54  37 SW29G36   29.49R
WARSAW +       PTSUNNY   79  55  44 S13G23    29.52R

$$

INZ006>009-017-018-025>027-262000-
NORTHEAST INDIANA

CITY           SKY/WX    TMP DP  RH WIND       PRES   REMARKS
ANGOLA *+      SUNNY     81  75  83 S14       29.52S
AUBURN +       SUNNY     82  57  42 S9G20     29.53S
FORT WAYNE     MOSUNNY   82  59  45 S25G37    29.53F
HUNTINGTON +   SUNNY    N/A N/A N/A S15G28    29.53S
KENDALLVILLE + MOSUNNY   79  60  51 S21G26    29.53S

$$

INZ028-029-035-036-043>045-051>053-262000-
WEST CENTRAL INDIANA

CITY           SKY/WX    TMP DP  RH WIND       PRES   REMARKS
CRAWFORDSVL +    N/A    N/A N/A N/A MISG        N/A
GREENCASTLE +  SUNNY     81  57  44 S12G18    29.56S
LAFAYETTE      MOSUNNY   81  55  40 S16G25    29.50F
TERRE HAUTE    SUNNY     81  56  42 S18G29    29.55S

$$

INZ030>032-037>040-046>048-054>057-064-065-262000-
CENTRAL INDIANA

CITY           SKY/WX    TMP DP  RH WIND       PRES   REMARKS
CP ATTERBURY + SUNNY     81  61  50 S17G28    29.57F
COLUMBUS       SUNNY     81  59  47 S18G28    29.57F
FRANKFORT +    MOSUNNY   88  54  31 W20G30    29.55S
GREENWOOD *+   MOSUNNY   83  59  44 S16G23    29.57R
INDIANAPOLIS   MOSUNNY   83  60  45 S16G24    29.55S
-EAGLE CREEK   SUNNY     83  55  38 SW17G25   29.55R
KOKOMO +       MOSUNNY   83  59  44 SW25G31   29.55R
MARION +       SUNNY     82  57  42 SW23G29   29.55S
MT COMFORT *+  SUNNY     82  61  47 S20       29.56R
SHELBYVILLE    SUNNY     85  60  42 S25G32    29.55F
ZIONSVILLE +   MOSUNNY   83  55  37 SW20G29   29.55F

$$

INZ033-034-041-042-049-050-058-059-262000-
EAST CENTRAL INDIANA

CITY           SKY/WX    TMP DP  RH WIND       PRES   REMARKS
MUNCIE         SUNNY     84  59  42 SW17G32   29.54F
RICHMOND +     SUNNY     81  59  47 S25       29.62F

$$

INZ060-061-067>069-081>083-085>088-262000-
SOUTHWEST INDIANA

CITY           SKY/WX    TMP DP  RH WIND       PRES   REMARKS
EVANSVILLE     MOSUNNY   83  63  50 S16G25    29.57F
HUNTINGBURG *+ MOSUNNY   82  65  56 S20G29    29.59F
WASHINGTON +   CLOUDY    82  58  43 S16       29.56F

$$

INZ062-063-066-070>080-084-089>092-262000-
SOUTH CENTRAL AND SOUTHEAST INDIANA

CITY           SKY/WX    TMP DP  RH WIND       PRES   REMARKS
BEDFORD +      SUNNY     82  57  42 S14G20    29.57F
BLOOMINGTON    SUNNY     84  58  40 S14       29.56F
MADISON *+     MOSUNNY   79  59  50 S14G20    29.64F
NORTH VERNON + SUNNY     79  61  53 S14G21    29.60F
SEYMOUR +      MOSUNNY   84  63  48 S15G22    29.59F

$$





USA.gov is the U.S. government's official web portal to all federal, state and local government web resources and services.